Location: Copeville
(33.0796°N, 96.4155°W)
Time: 19:48:55
(UTC+00:00)

NOAA 19 - Pass Details

Date: 04 April 2023
Orbit: 840 x 859 km, 99.1° (Epoch: 31 May)

Event Time Altitude Azimuth Distance (km) Brightness Sun altitude
Exits shadow 02:30:42 22° 171° (S) 1,756 6.6 -21.7°
Maximum altitude 02:34:19 80° 257° (WSW) 861 5.2 -22.4°
Drops below altitude 10° 02:39:48 10° 344° (NNW) 2,466 8.1 -23.5°
Sets 02:42:10 0° 346° (NNW) 3,402 8.9 -23.9°
